NOAA 15 1 25338U 98030A 21019.12562209 .00000012 00000-0 23502-4 0 9990 2 25338 98.6985 48.8632 0010313 1.3426 358.7779 14.26009147179965 DMSP 5D-3 F15 (USA 147) 1 25991U 99067A 21019.11159444 -.00000105 00000-0 -30016-4 0 9991 2 25991 98.9984 358.4267 0009458 203.4588 290.8785 14.16464529 90972 METEOSAT-8 (MSG-1) 1 27509U 02040B 21018.69389130 .00000135 00000-0 00000-0 0 9999 2 27509 7.1054 53.1805 0000668 183.4165 173.0584 1.00279581 67444 DMSP 5D-3 F16 (USA 172) 1 28054U 03048A 21019.12211053 -.00000074 00000-0 -15377-4 0 9992 2 28054 98.9376 3.7079 0007096 339.6411 151.9998 14.13647863890369 NOAA 18 1 28654U 05018A 21019.13425826 .00000064 00000-0 59128-4 0 9992 2 28654 99.0160 83.2671 0013860 347.0552 13.0261 14.12574181807454 METEOSAT-9 (MSG-2) 1 28912U 05049B 21018.82981692 .00000017 00000-0 00000-0 0 9995 2 28912 4.8866 69.2023 0001090 257.3437 93.8807 1.00273572 55225 FORMOSAT-3 FM6 1 29047U 06011A 21019.19130607 .00000183 00000-0 87866-4 0 9991 2 29047 71.9786 29.6463 0048492 47.8485 312.6755 14.28777350772149 FORMOSAT-3 FM1 1 29048U 06011B 21019.14477451 .00000136 00000-0 69918-4 0 9994 2 29048 71.9675 300.3970 0043357 5.4610 354.6990 14.28748417774606 FORMOSAT-3 FM5 1 29049U 06011C 21018.99411353 .00000268 00000-0 12169-3 0 9997 2 29049 72.0209 113.5821 0033951 30.2758 330.0331 14.28826503770379 FORMOSAT-3 FM3 1 29050U 06011D 21019.05544309 .00000083 00000-0 27935-4 0 9998 2 29050 72.0144 237.5009 0051574 291.9853 67.5824 14.59005894787875 FORMOSAT-3 FM4 1 29051U 06011E 21018.70872065 .00000039 00000-0 31220-4 0 9996 2 29051 72.0057 15.7992 0070692 272.5254 86.7791 14.28861609772902 FORMOSAT-3 FM2 1 29052U 06011F 21018.62287787 .00000083 00000-0 48659-4 0 9992 2 29052 72.0348 90.8256 0040609 349.6884 10.3415 14.28966484770432 EWS-G1 (GOES 13) 1 29155U 06018A 21018.85049269 .00000039 00000-0 00000-0 0 9994 2 29155 0.3683 104.1559 0006449 131.7391 250.2073 1.00274209 23567 METOP-A 1 29499U 06044A 21019.09969955 -.00000011 00000-0 14085-4 0 9997 2 29499 98.4945 64.1683 0001251 70.4124 316.9356 14.21495767739524 DMSP 5D-3 F17 (USA 191) 1 29522U 06050A 21019.09073401 .00000003 00000-0 24840-4 0 9993 2 29522 98.7920 38.1322 0008867 285.4371 74.5823 14.14033307733205 FENGYUN 3A 1 32958U 08026A 21019.17522797 .00000003 00000-0 21325-4 0 9996 2 32958 98.4317 359.9975 0009835 73.7174 286.5083 14.18645151655411 FENGYUN 2E 1 33463U 08066A 21018.93321966 -.00000207 00000-0 00000-0 0 9990 2 33463 4.7919 67.8234 0003893 318.4890 155.2471 1.00272795 44283 NOAA 19 1 33591U 09005A 21019.08370802 -.00000014 00000-0 17794-4 0 9994 2 33591 99.1928 36.0140 0013846 187.8343 172.2614 14.12448911615832 GOES 14 1 35491U 09033A 21018.59304639 -.00000092 00000-0 00000-0 0 9990 2 35491 0.0915 236.5530 0012235 350.2061 0.6967 1.00271865 42311 METEOR-M 1 1 35865U 09049A 21018.93308599 .00000006 00000-0 21497-4 0 9990 2 35865 98.4622 3.0547 0001282 299.4692 60.6358 14.22262170588548 DMSP 5D-3 F18 (USA 210) 1 35951U 09057A 21019.10935571 .00000080 00000-0 65295-4 0 9997 2 35951 98.6656 7.9579 0012034 110.8432 249.4031 14.13326556580463 GOES 15 1 36411U 10008A 21018.66013093 .00000054 00000-0 00000-0 0 9993 2 36411 0.3972 98.8381 0002190 318.4156 170.6717 1.00278895 39860 COMS 1 1 36744U 10032A 21018.78297117 -.00000343 00000-0 00000-0 0 9995 2 36744 0.0372 121.0635 0000828 171.0093 236.3399 1.00270550 31284 FENGYUN 3B 1 37214U 10059A 21019.17001703 .00000017 00000-0 31932-4 0 9994 2 37214 99.0694 10.4758 0017372 19.5229 71.9649 14.15972600528207 SUOMI NPP 1 37849U 11061A 21019.09848081 .00000028 00000-0 33804-4 0 9993 2 37849 98.7243 319.8743 0001297 62.4314 67.0915 14.19548302478217 FENGYUN 2F 1 38049U 12002A 21018.92324675 -.00000356 00000-0 00000-0 0 9994 2 38049 2.5625 82.8832 0004366 29.5362 90.2798 1.00283074 33087 METEOSAT-10 (MSG-3) 1 38552U 12035B 21018.83103823 .00000063 00000-0 00000-0 0 9993 2 38552 1.2366 356.5104 0000522 24.4820 45.9468 1.00267092 31058 METOP-B 1 38771U 12049A 21019.15702587 -.00000008 00000-0 16416-4 0 9991 2 38771 98.7018 81.3506 0002476 96.8714 317.2099 14.21483416432664 FENGYUN 3C 1 39260U 13052A 21019.09596617 .00000010 00000-0 26510-4 0 9996 2 39260 98.5217 66.4883 0010394 321.2456 38.7979 14.15856709379131 METEOR-M 2 1 40069U 14037A 21019.12645832 -.00000006 00000-0 16599-4 0 9999 2 40069 98.4785 54.2296 0006178 26.8934 333.2569 14.20680282338833 HIMAWARI-8 1 40267U 14060A 21018.92900434 -.00000273 00000-0 00000+0 0 9995 2 40267 0.0523 205.7107 0001114 85.3322 302.5668 1.00273200 23058 FENGYUN 2G 1 40367U 14090A 21018.92071690 -.00000295 00000-0 00000-0 0 9997 2 40367 0.6658 93.0724 0003883 287.3679 168.6564 1.00257752 22230 METEOSAT-11 (MSG-4) 1 40732U 15034A 21018.82929351 .00000002 00000-0 00000-0 0 9992 2 40732 0.3309 259.9339 0001319 355.4208 162.2425 1.00261471 20235 ELEKTRO-L 2 1 41105U 15074A 21018.89803552 -.00000114 00000-0 00000-0 0 9997 2 41105 1.7178 94.4305 0001953 147.7741 185.1247 1.00271616 18709 HIMAWARI-9 1 41836U 16064A 21018.78541377 -.00000274 00000-0 00000-0 0 9997 2 41836 0.0535 262.0874 0001395 89.6662 190.1111 1.00270910 15382 GOES 16 1 41866U 16071A 21018.72374615 -.00000246 00000-0 00000-0 0 9990 2 41866 0.0411 233.9378 0001384 91.7157 337.9980 1.00270150 15308 FENGYUN 4A 1 41882U 16077A 21018.93104383 -.00000328 00000-0 00000-0 0 9991 2 41882 0.0433 73.4924 0004763 355.9266 128.8189 1.00277893 15178 CYGFM05 1 41884U 16078A 21019.07934173 .00000320 00000-0 18536-4 0 9996 2 41884 34.9555 160.3760 0015416 174.2924 185.7965 15.14835874226824 CYGFM04 1 41885U 16078B 21018.71264181 .00000428 00000-0 23856-4 0 9992 2 41885 34.9486 154.6775 0013917 183.5926 176.4687 15.15359485226760 CYGFM02 1 41886U 16078C 21018.70586651 .00000447 00000-0 24855-4 0 9992 2 41886 34.9578 156.6058 0014600 178.9206 181.1539 15.15358349226833 CYGFM01 1 41887U 16078D 21019.07495165 .00000313 00000-0 18262-4 0 9990 2 41887 34.9521 161.8764 0015879 174.6651 185.4232 15.14647584226793 CYGFM08 1 41888U 16078E 21019.07316543 .00000336 00000-0 19245-4 0 9990 2 41888 34.9493 156.7614 0015166 182.9717 177.0906 15.15062219226841 CYGFM06 1 41889U 16078F 21018.75131919 .00000470 00000-0 26056-4 0 9994 2 41889 34.9573 155.0141 0013557 179.3322 180.7410 15.15348887226795 CYGFM07 1 41890U 16078G 21018.72991416 .00000437 00000-0 24322-4 0 9996 2 41890 34.9511 154.1422 0013357 182.7772 177.2867 15.15348461226780 CYGFM03 1 41891U 16078H 21019.05570477 .00000332 00000-0 18891-4 0 9992 2 41891 34.9544 152.4287 0012876 184.3312 175.7289 15.15334764226883 FENGYUN 3D 1 43010U 17072A 21019.09036100 -.00000012 00000-0 15042-4 0 9997 2 43010 98.7746 322.1867 0001621 137.8948 222.2363 14.19758773164799 NOAA 20 1 43013U 17073A 21019.10861833 .00000030 00000-0 35111-4 0 9990 2 43013 98.7409 319.9154 0001377 86.8204 273.3130 14.19548414164256 GOES 17 1 43226U 18022A 21018.72985451 .00000099 00000-0 00000-0 0 9991 2 43226 0.0152 219.6612 0000642 102.3339 281.8625 1.00272160 10605 FENGYUN 2H 1 43491U 18050A 21019.13204453 -.00000126 00000-0 00000+0 0 9999 2 43491 0.1573 249.8134 0002502 246.5412 109.3201 1.00270557 9702 METOP-C 1 43689U 18087A 21019.18386693 -.00000008 00000-0 16187-4 0 9997 2 43689 98.7088 81.7677 0003515 91.7836 268.3744 14.21488635114244 GEO-KOMPSAT-2A 1 43823U 18100A 21018.82201983 -.00000342 00000-0 00000-0 0 9995 2 43823 0.0174 206.9227 0002239 76.9227 258.7687 1.00267750 7818 IOD-1 GEMS 1 44385U 98067QK 21018.11179181 .00065599 00000-0 40992-3 0 9996 2 44385 51.6365 324.0764 0005045 93.4796 266.6781 15.76216609 88128 METEOR-M2 2 1 44387U 19038A 21018.98661348 -.00000043 00000-0 11191-6 0 9991 2 44387 98.6499 341.0739 0001345 18.8734 341.2494 14.23684609 80204